Regional Weather Roundup
Issued by NWS Kansas City/Pleasant Hill, MO

Home | Current Version | Previous Version | Graphics & Text | Print | Product List | Glossary Off
Versions: 1 2 3 4 5 6 7 8 9 10 11 12 13 14 15 16 17 18 19 20 21 22 23 24 25 26 27

000
ASUS43 KEAX 231810
RWREAX

WEATHER ROUNDUP FOR EASTERN KANSAS AND NORTHWEST MISSOURI
NATIONAL WEATHER SERVICE KANSAS CITY/PLEASANT HILL MO
100 PM CDT MON APR 23 2018

KSZ040-057-103>105-MOZ028-029-037-043-231900-
...KANSAS CITY METROPOLITAN AREA...

CITY           SKY/WX    TMP DP  RH WIND       PRES   REMARKS
K.C. INTL      MOSUNNY   72  33  24 NE15      30.09F
6HR MIN TEMP:  52; 6HR MAX TEMP:  72;

K.C. DOWNTOWN  SUNNY     72  32  23 NE13G22   30.06F
6HR MIN TEMP:  57; 6HR MAX TEMP:  72;

LEES SUMMIT    SUNNY     71  32  23 NE17G25   30.07F
6HR MIN TEMP:  54; 6HR MAX TEMP:  72;

OLATHE - IXD   SUNNY     71  40  32 N12G22    30.08F
6HR MIN TEMP:  53; 6HR MAX TEMP:  71;

OLATHE - OJC   SUNNY     70  36  28 NE15      30.07F
6HR MIN TEMP:  54; 6HR MAX TEMP:  70;

LAWRENCE       SUNNY     73  37  27 NE8G21    30.08F

$$

MOZ001>008-011>017-020>025-030>033-038>040-044>046-053-054-231900-
...NORTHERN AND CENTRAL MISSOURI...

CITY           SKY/WX    TMP DP  RH WIND       PRES   REMARKS
ST. JOSEPH     SUNNY     72  35  25 N14G22    30.10F
6HR MIN TEMP:  50; 6HR MAX TEMP:  73;

MOSBY          CLEAR     70  28  21 N8G22     30.07F
WARRENSBURG    MOSUNNY   72  32  23 NE13G18   30.04F
WHITEMAN AFB   NOT AVBL
CLINTON        MOSUNNY   68  39  34 N17       30.02F
SEDALIA        MOSUNNY   65  37  35 N14       30.04F
6HR MIN TEMP:  53; 6HR MAX TEMP:  66;

WARSAW         NOT AVBL
CHILLICOTHE      N/A     73  35  25 N13G23    30.08F
6HR MIN TEMP:  52; 6HR MAX TEMP:  73;

KIRKSVILLE     PTSUNNY   70  37  29 NE16      30.08F
6HR MIN TEMP:  49; 6HR MAX TEMP:  70;


$$

MOZ041-047>049-056>058-063>065-088>090-097-231900-
...EASTERN AND SOUTHERN MISSOURI...

CITY           SKY/WX    TMP DP  RH WIND       PRES   REMARKS
ST. LOUIS INTL CLOUDY    55  53  93 NE15      30.00S
6HR MIN TEMP:  49; 6HR MAX TEMP:  55; 6HR PCP:  0.05;

SPIRIT OF STL  CLOUDY    55  53  93 NE13      29.99F
COLUMBIA       MOSUNNY   69  41  36 NE17G28   30.00F
JEFFERSON CITY MOSUNNY   68  41  37 NE14G26   29.99F
ROLLA          CLOUDY    55  47  74 NE17      29.99F
OSAGE BEACH    PTSUNNY   68  47  46 NE17      29.98F
SPRINGFIELD    MOSUNNY   66  47  50 N16G29    29.96F
BRANSON        PTSUNNY   66  46  48 N20G26    29.94F
JOPLIN         SUNNY     66  48  52 N16       30.03F
WEST PLAINS    CLOUDY    53  50  89 N16G24    29.92F

$$

IAZ060-094-KSZ022-034>040-054-083-096-NEZ052-066-093-231900-
...KANSAS...SOUTHEAST NEBRASKA AND IOWA...

CITY           SKY/WX    TMP DP  RH WIND       PRES   REMARKS
TOPEKA         SUNNY     72  39  30 N8G20     30.09F
6HR MIN TEMP:  50; 6HR MAX TEMP:  72;

MANHATTAN      SUNNY     71  33  24 NE10      30.11F
EMPORIA        SUNNY     69  39  33 NE9       30.09F
CHANUTE        CLOUDY    70  47  43 N10G29    30.07F
WICHITA        MOSUNNY   69  35  28 N7G18     30.11F
OMAHA          MOSUNNY   71  29  21 E8        30.15F
LINCOLN        SUNNY     72  32  23 NE8       30.16F
FALLS CITY     SUNNY     71  28  20 E10G20    30.11F
LAMONI         SUNNY     69  35  28 NE14      30.12F
DES MOINES     PTSUNNY   68  31  25 NE8       30.15F

$$





USA.gov is the U.S. government's official web portal to all federal, state and local government web resources and services.